Location: Central Falls
(41.8900°N, 71.3929°W)
Time: 14:48:36
(UTC+00:00)

Vanguard 1 Rocket - Pass Details

Date: 03 December 2023
Orbit: 654 x 4218 km, 34.3° (Epoch: 24 February)

Event Time Altitude Azimuth Distance (km) Brightness Sun altitude
Rises 09:09:12 0° 225° (SW) 8,395 12.0 -30.3°
Reaches altitude 10° 09:15:50 10° 220° (SW) 7,155 11.6 -29.0°
Maximum altitude 09:36:06 44° 158° (SSE) 3,622 10.5 -25.3°
Drops below altitude 10° 09:47:54 10° 92° (E) 4,327 11.9 -23.1°
Sets 09:50:45 0° 85° (E) 4,952 12.5 -22.6°
